Bismarck, ND

2:36 PM CDT on October 18, 2017 (GMT -0500)
Bismarck Municipal

Weather History for KBIS - August, 2013

Change the Weather History Date:

Friday, August 30, 2013

  Actual Average Record
Temperature  
Mean Temperature 77 °F 66 °F  
Max Temperature 92 °F 79 °F 100 °F (2008)
Min Temperature 62 °F 52 °F 37 °F (1965)
Degree Days  
Heating Degree Days 0 3  
Month to date heating degree days 6 37  
Since 1 June heating degree days 114 147  
Since 1 July heating degree days 28 54  
Cooling Degree Days 12 3  
Month to date cooling degree days 192 173  
Year to date cooling degree days 473 477  
Since 1 June cooling degree days 461 460  
Growing Degree Days 26 (Base 50)    
Moisture  
Dew Point 65 °F    
Average Humidity 69    
Maximum Humidity 100    
Minimum Humidity 38    
Precipitation  
Precipitation 0.12 in 0.07 in 2.00 in (1951)
Month to date precipitation 1.37 2.22  
Year to date precipitation 16.31 13.75  
Snow  
Snow 0.00 in - - ()
Month to date snowfall 0.0  
Since 1 June snowfall 0.0  
Snow Depth 0.00 in    
Sea Level Pressure  
Sea Level Pressure 29.94 in    
Wind  
Wind Speed 7 mph (SE)    
Max Wind Speed 29 mph    
Max Gust Speed 38 mph    
Visibility 7 miles    
Events Rain , Thunderstorm    
T = Trace of Precipitation, MM = Missing Value Source: NWS Daily Summary

Daily Weather History Graph

Daily Weather History Graph

Search for Another Location

Airport or City:

Trip Planner

Search our weather history database for the weather conditions in past years. The results will help you decide how hot, cold, wet, or windy it might be!

Date:

Astronomy

Aug. 30, 2013 Rise Set
Actual Time 7:00 AM CDT 8:25 PM CDT
Civil Twilight 6:28 AM CDT 8:57 PM CDT
Nautical Twilight 5:50 AM CDT 9:35 PM CDT
Astronomical Twilight 5:09 AM CDT 10:15 PM CDT
Moon 1:29 AM CDT (8/30) 4:53 PM CDT (8/30)
Length of Visible Light 14h 28m
Length of Day
13h 25m
Waning Crescent, 29% of the Moon is Illuminated
Aug 30
Waning Crescent
Sep 5
New
Sep 12
First Quarter
Sep 19
Full
Sep 26
Last Quarter

Hourly Weather History & Observations

Time (CDT) Temp. Heat Index Dew Point Humidity Pressure Visibility Wind Dir Wind Speed Gust Speed Precip Events Conditions
12:52 AM 69.1 °F - 66.0 °F 90% 29.99 in 10.0 mi Calm Calm - N/A   Clear
1:52 AM 69.1 °F - 66.0 °F 90% 30.00 in 10.0 mi West 3.5 mph - N/A   Clear
2:52 AM 66.0 °F - 64.0 °F 93% 29.99 in 10.0 mi Calm Calm - N/A   Clear
3:52 AM 66.0 °F - 64.9 °F 96% 29.99 in 10.0 mi Calm Calm - N/A   Clear
4:52 AM 63.0 °F - 62.1 °F 97% 29.99 in 5.0 mi Calm Calm - N/A   Clear
5:52 AM 63.0 °F - 62.1 °F 97% 29.99 in 7.0 mi Calm Calm - N/A   Clear
6:52 AM 63.0 °F - 62.1 °F 97% 30.00 in 4.0 mi ENE 3.5 mph - N/A   Clear
6:58 AM 62.1 °F - 61.0 °F 96% 30.02 in 1.0 mi East 3.5 mph - N/A   Clear
7:16 AM 62.1 °F - 61.0 °F 96% 30.03 in 0.5 mi Calm Calm - N/A   Clear
7:25 AM 63.0 °F - 62.1 °F 97% 30.03 in 5.0 mi Calm Calm - N/A   Clear
7:32 AM 62.1 °F - 61.0 °F 96% 30.03 in 1.5 mi Calm Calm - N/A   Clear
7:39 AM 63.0 °F - 62.1 °F 97% 30.03 in 4.0 mi Calm Calm - N/A   Clear
7:52 AM 64.9 °F - 63.0 °F 93% 30.01 in 5.0 mi Calm Calm - N/A   Clear
8:35 AM 64.9 °F - 64.0 °F 97% 30.04 in 2.5 mi East 3.5 mph - N/A   Partly Cloudy
8:41 AM 64.9 °F - 64.0 °F 97% 30.03 in 1.0 mi Calm Calm - N/A   Mist
8:52 AM 64.9 °F - 64.9 °F 100% 30.01 in 1.8 mi Calm Calm - N/A   Mostly Cloudy
9:08 AM 66.0 °F - 64.9 °F 96% 30.03 in 3.0 mi Calm Calm - N/A   Mostly Cloudy
9:31 AM 68.0 °F - 66.0 °F 93% 30.03 in 5.0 mi ENE 3.5 mph - N/A   Scattered Clouds
9:52 AM 70.0 °F - 66.9 °F 90% 30.02 in 7.0 mi Variable 3.5 mph - N/A   Partly Cloudy
10:52 AM 77.0 °F - 68.0 °F 74% 30.01 in 10.0 mi SW 3.5 mph - N/A   Clear
11:52 AM 82.9 °F 85.4 °F 66.9 °F 58% 29.98 in 10.0 mi Variable 6.9 mph - N/A   Clear
12:52 PM 84.0 °F 86.3 °F 66.0 °F 55% 29.97 in 10.0 mi South 6.9 mph - N/A   Clear
1:52 PM 86.0 °F 87.6 °F 64.9 °F 49% 29.95 in 10.0 mi SSE 6.9 mph - N/A   Clear
2:52 PM 89.1 °F 90.3 °F 64.0 °F 43% 29.93 in 10.0 mi SSW 10.4 mph - N/A   Clear
3:52 PM 89.1 °F 90.3 °F 64.0 °F 43% 29.90 in 10.0 mi SSE 12.7 mph 19.6 mph N/A   Clear
4:52 PM 91.0 °F 91.9 °F 63.0 °F 39% 29.87 in 10.0 mi SSE 15.0 mph - N/A   Clear
5:52 PM 90.0 °F 90.6 °F 63.0 °F 40% 29.85 in 10.0 mi South 10.4 mph - N/A   Clear
6:52 PM 84.0 °F 85.8 °F 64.9 °F 53% 29.82 in 10.0 mi SE 10.4 mph - N/A   Clear
7:52 PM 82.0 °F 83.4 °F 64.0 °F 54% 29.82 in 10.0 mi SE 6.9 mph - N/A   Scattered Clouds
8:04 PM 81.0 °F 82.5 °F 64.0 °F 56% 29.84 in 10.0 mi SE 6.9 mph - 0.00 in Rain , Thunderstorm Light Rain
8:20 PM 80.1 °F 81.9 °F 64.9 °F 60% 29.86 in 2.5 mi South 4.6 mph - 0.00 in Thunderstorm Unknown
8:32 PM 77.0 °F - 66.9 °F 71% 29.86 in 4.0 mi South 27.6 mph 38.0 mph 0.00 in Rain , Thunderstorm Thunderstorms and Rain
8:40 PM 73.9 °F - 66.9 °F 79% 29.83 in 2.0 mi South 18.4 mph 38.0 mph 0.11 in Rain , Thunderstorm Thunderstorms and Rain
8:42 PM 73.0 °F - 66.9 °F 81% 29.83 in 3.0 mi South 12.7 mph 31.1 mph 0.11 in Rain , Thunderstorm Light Rain
8:52 PM 73.0 °F - 68.0 °F 84% 29.83 in 10.0 mi SE 9.2 mph - 0.11 in Thunderstorm Mostly Cloudy
9:15 PM 75.0 °F - 66.0 °F 73% 29.86 in 10.0 mi Variable 6.9 mph - N/A Thunderstorm Thunderstorm
9:52 PM 72.0 °F - 66.0 °F 81% 29.86 in 10.0 mi ESE 15.0 mph 27.6 mph 0.01 in Rain , Thunderstorm Light Thunderstorms and Rain
10:00 PM 71.1 °F - 66.0 °F 84% 29.87 in 10.0 mi ESE 13.8 mph 26.5 mph 0.00 in Thunderstorm Mostly Cloudy
10:35 PM 72.0 °F - 64.9 °F 78% 29.86 in 10.0 mi SE 12.7 mph - 0.00 in   Mostly Cloudy
10:52 PM 72.0 °F - 66.0 °F 81% 29.84 in 10.0 mi SE 10.4 mph - 0.00 in Thunderstorm Mostly Cloudy
11:32 PM 73.0 °F - 64.9 °F 76% 29.87 in 10.0 mi East 11.5 mph 20.7 mph N/A   Mostly Cloudy
11:52 PM 72.0 °F - 62.1 °F 71% 29.84 in 10.0 mi East 20.7 mph 28.8 mph N/A   Scattered Clouds